When you browse on this site, cookies collect data to enhance your experience and personalize the content and advertising you see.
Visit our Privacy Policy to learn more. By continuing to use the site, you agree to this use of cookies and data.
  • In United Kingdom
  • List of Countries
  • For 7 days
  • Water Temperature
  • Satellite Maps
  • Weather Map
  • Weather Widgets
  • user-avatar
    Login

    Hourly Weather Penonomé

    Today, 21 July, Sunday

    Time Temperature Precipitation Wind Pressure Humidity
    00:00 +27°C° 0 mm 3 mps 747 mmHg 91%
    01:00 +27°C° 0 mm 3 mps 747 mmHg 91%
    02:00 +27°C° 0 mm 3 mps 747 mmHg 92%
    03:00 +27°C° 0 mm 3 mps 747 mmHg 92%
    04:00 +27°C° 0 mm 2 mps 746 mmHg 92%
    05:00 +27°C° 0 mm 2 mps 747 mmHg 92%
    06:00 +27°C° 0 mm 2 mps 747 mmHg 93%
    07:00 +27°C° 0 mm 2 mps 747 mmHg 93%
    08:00 +28°C° 0.1 mm 3 mps 748 mmHg 87%
    09:00 +30°C° 0.1 mm 3 mps 748 mmHg 81%
    10:00 +32°C° 0.1 mm 4 mps 748 mmHg 76%
    11:00 +33°C° 0.1 mm 4 mps 748 mmHg 72%
    12:00 +34°C° 0.1 mm 4 mps 748 mmHg 67%
    13:00 +35°C° 0.1 mm 4 mps 748 mmHg 63%
    14:00 +34°C° 0.3 mm 4 mps 747 mmHg 65%
    15:00 +34°C° 0.3 mm 4 mps 747 mmHg 68%
    16:00 +33°C° 0.3 mm 4 mps 746 mmHg 70%
    17:00 +32°C° 0.3 mm 4 mps 746 mmHg 75%
    18:00 +29°C° 0.3 mm 4 mps 747 mmHg 80%
    19:00 +28°C° 0.3 mm 3 mps 747 mmHg 85%
    20:00 +28°C° 0 mm 3 mps 748 mmHg 87%
    21:00 +27°C° 0 mm 3 mps 748 mmHg 89%
    22:00 +27°C° 0 mm 2 mps 749 mmHg 90%
    23:00 +27°C° 0 mm 2 mps 748 mmHg 91%

    Tomorrow, 22 July, Monday

    Time Temperature Precipitation Wind Pressure Humidity
    00:00 +27°C° 0 mm 2 mps 748 mmHg 92%
    01:00 +26°C° 0 mm 1 mps 748 mmHg 93%
    02:00 +26°C° 0 mm 2 mps 748 mmHg 92%
    03:00 +26°C° 0 mm 2 mps 747 mmHg 92%
    04:00 +26°C° 0 mm 2 mps 747 mmHg 91%
    05:00 +26°C° 0.1 mm 2 mps 747 mmHg 91%
    06:00 +26°C° 0.1 mm 2 mps 747 mmHg 90%
    07:00 +26°C° 0.1 mm 3 mps 748 mmHg 89%
    08:00 +28°C° 0.1 mm 3 mps 748 mmHg 83%
    09:00 +29°C° 0.1 mm 4 mps 748 mmHg 77%
    10:00 +32°C° 0.1 mm 4 mps 749 mmHg 71%
    11:00 +32°C° 0.7 mm 4 mps 749 mmHg 69%
    12:00 +33°C° 0.7 mm 4 mps 748 mmHg 67%
    13:00 +33°C° 0.7 mm 4 mps 748 mmHg 66%
    14:00 +33°C° 1.7 mm 4 mps 748 mmHg 70%
    15:00 +31°C° 1.7 mm 3 mps 748 mmHg 74%
    16:00 +30°C° 1.7 mm 3 mps 748 mmHg 78%
    17:00 +29°C° 2.9 mm 2 mps 748 mmHg 84%
    18:00 +27°C° 2.9 mm 2 mps 748 mmHg 89%
    19:00 +26°C° 2.9 mm 2 mps 749 mmHg 95%
    20:00 +26°C° 4.9 mm 2 mps 749 mmHg 95%
    21:00 +26°C° 4.9 mm 2 mps 750 mmHg 96%
    22:00 +26°C° 4.9 mm 2 mps 750 mmHg 97%
    23:00 +26°C° 0.1 mm 2 mps 750 mmHg 96%

    Day after tomorrow, 23 July, Tuesday

    Time Temperature Precipitation Wind Pressure Humidity
    00:00 +26°C° 0.1 mm 2 mps 750 mmHg 95%
    01:00 +25°C° 0.1 mm 2 mps 749 mmHg 94%
    02:00 +25°C° 0.1 mm 1 mps 749 mmHg 94%
    03:00 +25°C° 0.1 mm 1 mps 749 mmHg 94%
    04:00 +25°C° 0.1 mm 1 mps 749 mmHg 94%
    05:00 +25°C° 0 mm 1 mps 749 mmHg 93%
    06:00 +26°C° 0 mm 1 mps 749 mmHg 93%
    07:00 +26°C° 0 mm 1 mps 749 mmHg 92%
    08:00 +27°C° 0.3 mm 1 mps 749 mmHg 88%
    09:00 +28°C° 0.3 mm 1 mps 750 mmHg 84%
    10:00 +30°C° 0.3 mm 2 mps 750 mmHg 79%
    11:00 +30°C° 1.2 mm 2 mps 750 mmHg 78%
    12:00 +30°C° 1.2 mm 2 mps 750 mmHg 76%
    13:00 +31°C° 1.2 mm 2 mps 749 mmHg 75%
    14:00 +30°C° 2 mm 2 mps 749 mmHg 79%
    15:00 +29°C° 2 mm 2 mps 748 mmHg 83%
    16:00 +29°C° 2 mm 2 mps 748 mmHg 86%
    17:00 +28°C° 1.4 mm 1 mps 748 mmHg 90%
    18:00 +27°C° 1.4 mm 1 mps 749 mmHg 93%
    19:00 +26°C° 1.4 mm 1 mps 749 mmHg 96%
    20:00 +26°C° 0.6 mm 1 mps 749 mmHg 96%
    21:00 +26°C° 0.6 mm 1 mps 750 mmHg 96%
    22:00 +26°C° 0.6 mm 1 mps 750 mmHg 96%
    23:00 +26°C° 0 mm 1 mps 750 mmHg 96%

    24 July, Wednesday

    Time Temperature Precipitation Wind Pressure Humidity
    00:00 +26°C° 0 mm 1 mps 750 mmHg 96%
    01:00 +25°C° 0 mm 1 mps 750 mmHg 96%
    02:00 +25°C° 0.1 mm 1 mps 749 mmHg 95%
    03:00 +25°C° 0.1 mm 1 mps 749 mmHg 95%
    04:00 +25°C° 0.1 mm 1 mps 749 mmHg 95%
    05:00 +23°C° 0.2 mm 0 mps 749 mmHg 94%
    06:00 +24°C° 0.2 mm 0 mps 749 mmHg 94%
    07:00 +24°C° 0.2 mm 0 mps 749 mmHg 94%
    08:00 +25°C° 0.2 mm 0 mps 750 mmHg 89%
    09:00 +28°C° 0.2 mm 1 mps 750 mmHg 84%
    10:00 +29°C° 0.2 mm 1 mps 750 mmHg 79%
    11:00 +29°C° 1.3 mm 1 mps 750 mmHg 82%
    12:00 +29°C° 1.3 mm 2 mps 749 mmHg 84%
    13:00 +28°C° 1.3 mm 2 mps 749 mmHg 86%
    14:00 +28°C° 1.3 mm 2 mps 748 mmHg 85%
    15:00 +29°C° 1.3 mm 2 mps 748 mmHg 84%
    16:00 +29°C° 1.3 mm 1 mps 747 mmHg 83%
    17:00 +28°C° 0.9 mm 1 mps 748 mmHg 86%
    18:00 +27°C° 0.9 mm 1 mps 748 mmHg 89%
    19:00 +27°C° 0.9 mm 1 mps 748 mmHg 92%
    20:00 +26°C° 0.1 mm 1 mps 749 mmHg 92%
    21:00 +26°C° 0.1 mm 1 mps 749 mmHg 92%
    22:00 +26°C° 0.1 mm 1 mps 750 mmHg 92%
    23:00 +26°C° 0 mm 1 mps 749 mmHg 93%

    25 July, Thursday

    Time Temperature Precipitation Wind Pressure Humidity
    00:00 +26°C° 0 mm 1 mps 749 mmHg 93%
    01:00 +26°C° 0 mm 1 mps 748 mmHg 93%
    02:00 +26°C° 0 mm 1 mps 748 mmHg 93%
    03:00 +25°C° 0 mm 1 mps 748 mmHg 93%
    04:00 +25°C° 0 mm 1 mps 748 mmHg 93%
    05:00 +26°C° 0.1 mm 1 mps 748 mmHg 92%
    06:00 +26°C° 0.1 mm 1 mps 748 mmHg 92%
    07:00 +26°C° 0.1 mm 1 mps 749 mmHg 92%
    08:00 +27°C° 0.3 mm 1 mps 749 mmHg 87%
    09:00 +28°C° 0.3 mm 1 mps 749 mmHg 81%
    10:00 +30°C° 0.3 mm 1 mps 749 mmHg 76%
    11:00 +30°C° 2.4 mm 1 mps 749 mmHg 76%
    12:00 +30°C° 2.4 mm 1 mps 749 mmHg 76%
    13:00 +30°C° 2.4 mm 1 mps 748 mmHg 76%
    14:00 +30°C° 2.8 mm 1 mps 748 mmHg 77%
    15:00 +30°C° 2.8 mm 1 mps 747 mmHg 78%
    16:00 +30°C° 2.8 mm 1 mps 747 mmHg 80%
    17:00 +29°C° 1.4 mm 1 mps 747 mmHg 83%
    18:00 +28°C° 1.4 mm 1 mps 748 mmHg 87%
    19:00 +27°C° 1.4 mm 1 mps 748 mmHg 90%
    20:00 +26°C° 0.2 mm 1 mps 748 mmHg 91%
    21:00 +26°C° 0.2 mm 1 mps 749 mmHg 91%
    22:00 +26°C° 0.2 mm 1 mps 749 mmHg 92%
    23:00 +26°C° 0.2 mm 2 mps 749 mmHg 93%

    26 July, Friday

    Time Temperature Precipitation Wind Pressure Humidity
    00:00 +26°C° 0.2 mm 2 mps 749 mmHg 94%
    01:00 +25°C° 0.2 mm 3 mps 748 mmHg 94%
    02:00 +25°C° 0.3 mm 3 mps 748 mmHg 94%
    03:00 +25°C° 0.3 mm 3 mps 748 mmHg 94%
    04:00 +25°C° 0.3 mm 3 mps 747 mmHg 94%
    05:00 +25°C° 0.3 mm 2 mps 748 mmHg 93%
    06:00 +25°C° 0.3 mm 2 mps 748 mmHg 92%
    07:00 +25°C° 0.3 mm 1 mps 748 mmHg 92%
    08:00 +26°C° 0.1 mm 1 mps 749 mmHg 90%
    09:00 +27°C° 0.1 mm 1 mps 749 mmHg 88%
    10:00 +27°C° 0.1 mm 1 mps 750 mmHg 87%
    11:00 +27°C° 1.5 mm 1 mps 749 mmHg 89%
    12:00 +26°C° 1.5 mm 1 mps 749 mmHg 92%
    13:00 +26°C° 1.5 mm 1 mps 749 mmHg 94%
    14:00 +25°C° 1.9 mm 1 mps 748 mmHg 95%
    15:00 +25°C° 1.9 mm 1 mps 748 mmHg 96%
    16:00 +25°C° 1.9 mm 1 mps 748 mmHg 97%
    17:00 +25°C° 2 mm 1 mps 748 mmHg 97%
    18:00 +24°C° 2 mm 1 mps 749 mmHg 97%
    19:00 +24°C° 2 mm 1 mps 749 mmHg 97%
    20:00 +24°C° 0.2 mm 1 mps 750 mmHg 96%
    21:00 +24°C° 0.2 mm 1 mps 750 mmHg 96%
    22:00 +24°C° 0.2 mm 1 mps 750 mmHg 95%
    23:00 +24°C° 0 mm 1 mps 750 mmHg 94%
    Show more